User: anonymous   Login
Location: State Camp
(41.2367°N, 77.7828°W)
Time: 18:21:12
(UTC-04:00)
Language:

ADEOS Rocket - Orbit

View from above orbital plane
View from above orbital plane
View from above satellite
View from above satellite

Ground track
Ground track

The orbit data is extracted from the following two-line orbital elements,

1 24279U 96046C   15182.71471442 -.00000005  00000-0  41600-4 0  9997
2 24279 098.6971 207.2109 0299387 317.0659 169.2084 13.47027544927786
Epoch (UTC): 01 July 2015 17:09:11
Eccentricity: 0.0299387
inclination: 98.6971°
perigee height: 860 km
apogee height: 1306 km
right ascension of ascending node: 207.2109°
argument of perigee: 317.0659°
revolutions per day: 13.47027544
mean anomaly at epoch: 169.2084°
orbit number at epoch: 92778

The dashed part of the orbit path shows where the satellite is in the earth's shadow,  

DLR